Weather in Shaydurovo

Russia / Novosibirsk Oblast     54°00′46″N   81°47′30″E
temp.,
°C
wind,
m/s
gust,
m/s
humid.,
%
clouds,
%
prec.,
mm/h
press.,
hPa
HPBL,
m
28 february, sun
sun2801:00−29ssw339919 0.0 103943
04:00−29sse339954 0.0 103842
07:00−28se359957 0.0 103872
10:00−26se599473 0.0 1036201
13:00−20sse599579 0.0 1033311
16:00−14sse5990100 0.0 1029494
19:00−11sse51095100 0.7 1025584
22:00−12se61194100 0.8 1022399
1 march, mon
mon101:00−9sse61294100 1.9 1019661
04:00−7s61395100 1.9 1015708
07:00−6s71395100 4.2 1011662
10:00−3ssw81596100 2.7 1009918
13:000sw81499100 5.8 1008975
16:000sw61298100 1.1 1007827
19:000sw81396100 2.1 10071063
22:00−1wsw71396100 0.6 1007776
2 march, tue
tue201:00−2wsw61296100 1.4 1009679
04:00−4wsw61195100 0.8 1012612
07:00−9wsw5995100 1.4 1015462
10:00−11wsw5895100 0.4 1017409
13:00−11wsw4693100 0.6 1019456
16:00−11sw4594100 0.1 1018416
19:00−15sw2298100 0.1 101820
22:00−17sse119798 0.0 101720
3 march, wed
wed301:00−15se129599 0.0 101621
04:00−14se1296100 0.1 101422
07:00−14w0097100 0.3 101520
10:00−12w2395100 0.3 1015168
13:00−10wsw4692100 0.6 1017512
16:00−10wsw5791100 0.3 1020724
19:00−13sw4895100 0.5 1022381
22:00−16sw3798100 0.1 1024181
4 march, thu
thu401:00−19ssw3699100 0.1 1025115
04:00−20s3410097 0.0 102560
07:00−19sse479997 0.1 1026132
10:00−16sse589799 0.0 1025206
13:00−11sse599599 0.1 1024357
16:00−9sse5993100 0.1 1021465
19:00−9sse51192100 0.1 1020375
22:00−9sse6129191 0.0 1017325